Regional Weather Roundup
Issued by NWS Portland, ME

Home | Current Version | Previous Version | Text Only | Print | Product List | Glossary On
Versions: 1 2 3 4 5 6 7 8 9 10 11 12 13 14 15 16 17 18 19 20 21 22 23 24 25 26 27 28 29 30 31 32 33 34 35 36 37 38 39 40 41 42 43 44 45 46 47 48 49 50
000
ASUS41 KGYX 290710
RWRGYX
WEATHER ROUNDUP FOR MAINE AND NEW HAMPSHIRE
NATIONAL WEATHER SERVICE GRAY ME
300 AM EDT MON MAY 29 2017

MEZ002-005-006-010-012-015-018-020-021-024-026-027-029-290800-
MAINE

CITY           SKY/WX    TMP DP  RH WIND       PRES   REMARKS
PORTLAND       CLOUDY    49  47  93 SE8       30.03F
SANFORD        CLOUDY    49  48  97 E5        30.02S
BAR HARBOR     CLOUDY    41  40  96 CALM      30.09R
WISCASSET      CLOUDY    48  46  93 CALM      30.06S
ROCKLAND       CLOUDY    45  44  97 SE5       30.06S
FRYEBURG       CLOUDY    49  48  97 VRB3      30.02S
LEWISTONAUBURN CLOUDY    48  47  96 SE7       30.03F
AUGUSTA        CLOUDY    47  44  90 S3        30.04F
WATERVILLE     CLOUDY    47  45  93 CALM      30.02S
BANGOR         CLOUDY    45  44  97 S7        30.07R
GREENVILLE       N/A     46  46 100 VRB3      29.99R
MILLINOCKET    CLOUDY    47  46  97 SE6       30.05S
HOULTON        CLOUDY    51  47  86 SE10      30.04R
PRESQUE ISLE   CLOUDY    54  45  71 SE8       30.05R
FRENCHVILLE    CLOUDY    49  45  86 E13       30.03S
CARIBOU        CLOUDY    52  47  83 E8        30.03S
$$

NHZ002-005-008-009-011-012-014-290800-
NEW HAMPSHIRE

CITY           SKY/WX    TMP DP  RH WIND       PRES   REMARKS
PORTSMOUTH     CLOUDY    51  49  94 E7        29.99S
ROCHESTER      CLOUDY    49  47  93 NE7       30.00S
NASHUA         CLOUDY    56  53  90 E5        29.99R
MANCHESTER     CLOUDY    53  48  83 NE3       29.98R
CONCORD        CLOUDY    53  49  86 CALM      29.98S
LACONIA        CLOUDY    51  49  92 NE10      29.99
PLYMOUTH       CLOUDY    55  50  83 SE3       29.97S
BERLIN         PTCLDY    46  42  86 N3        29.97S
WHITEFIELD     LGT RAIN  46  43  89 CALM      29.94F
JAFFREY        MOCLDY    50  50 100 CALM      29.98R
KEENE          CLEAR     49  48  97 S3        29.97R
LEBANON        CLOUDY    61  55  81 VRB3      29.93S
MT WASHINGTON  LGT RAIN  39  39 100 S17G28      N/A  VSB 0
$$

VTZ005-007-008-290800-
VERMONT

CITY           SKY/WX    TMP DP  RH WIND       PRES   REMARKS
ST JOHNSBURY     N/A     56  53  90 MISG      29.91F
MONTPELIER     CLOUDY    59  56  89 S7        29.95S
BURLINGTON     CLOUDY    65  55  70 S6        29.86S
$$

MAZ007-012-024-CTZ003-RIZ002-NYZ038-NYZ072-290800-
SOUTHERN NEW ENGLAND AND NY

CITY           SKY/WX    TMP DP  RH WIND       PRES   REMARKS
BOSTON         MOCLDY    53  50  89 SE7       30.00R
WORCESTER      CLEAR     49  45  86 SE6       29.97S
NANTUCKET      CLOUDY    49  46  90 E12       29.98S
PROVIDENCE     MOCLDY    51  50  96 E5        29.98S
HARTFORD       CLOUDY    54  50  86 CALM      29.96R
ALBANY         PTCLDY    58  48  69 SE7       29.89S
NEW YORK CITY  CLOUDY    61  51  70 E10       29.88F
$$

ANZ081-ANZ082-ANZ150-NHZ014-MEZ023>029-290800-
COASTAL MARINE OBSERVATIONS

STATION/POSITION TIME  TEMP    WIND        PRES    WAVE
                       AIR SEA DIR/SP/G            HT/PER
                 (UTC) (F)     (DEG/KT/KT) (MB)    (FT/S)
MOUNT DESERT ROC 0700   44                 1018.4S
MATINICUS ROCK   0600   45     150/ 16/ 18 1017.2S
ISLE OF SHOALS   0600   51     150/ 13/ 15 1015.3F
JEFFREYS LEDGE   0606      49                N/A     3/ 8
CASHES LEDGE BUO 0650   45 48              1017.0F   2/ 8
GEORGES BANK BUO 0550   46 46              1017.1    3/ 8
$$

.............KEY..............
   WCI - WIND CHILL
   TC  - TEMPERATURE IN CELSIUS
   VSB - VISIBILITY IN MILES
   HX  - HEAT INDEX
   FAIR- INDICATES FEW OR NO CLOUDS BELOW 12,000 FT, WITH NO
         SIGNIFICANT WEATHER AND/OR OBSTRUCTIONS TO VISIBILITY.






USA.gov is the U.S. government's official web portal to all federal, state and local government web resources and services.